Year,Month,Day,Hour,Minute,Value (Times are PST for temperature in C)
2012,06,10,00,00,10.10
2012,06,10,00,01,10.10
2012,06,10,00,02,10.10
2012,06,10,00,03,10.10
2012,06,10,00,04,10.10
2012,06,10,00,05,10.00
2012,06,10,00,06,9.90
2012,06,10,00,07,9.90
2012,06,10,00,08,9.90
2012,06,10,00,09,9.90
2012,06,10,00,10,9.90
2012,06,10,00,11,9.90
2012,06,10,00,12,9.90
2012,06,10,00,13,9.90
2012,06,10,00,14,9.90
2012,06,10,00,15,9.90
2012,06,10,00,16,9.90
2012,06,10,00,17,9.90
2012,06,10,00,18,9.90
2012,06,10,00,19,9.90
2012,06,10,00,20,9.90
2012,06,10,00,21,9.90
2012,06,10,00,22,9.90
2012,06,10,00,23,9.90
2012,06,10,00,24,9.90
2012,06,10,00,25,9.90
2012,06,10,00,26,9.90
2012,06,10,00,27,9.90
2012,06,10,00,28,9.90
2012,06,10,00,29,9.90
2012,06,10,00,30,9.90
2012,06,10,00,31,9.90
2012,06,10,00,32,9.90
2012,06,10,00,33,9.90
2012,06,10,00,34,9.90
2012,06,10,00,35,9.90
2012,06,10,00,36,10.00
2012,06,10,00,37,10.00
2012,06,10,00,38,10.10
2012,06,10,00,39,10.10
2012,06,10,00,40,10.10
2012,06,10,00,41,10.10
2012,06,10,00,42,10.00
2012,06,10,00,43,10.00
2012,06,10,00,44,10.10
2012,06,10,00,45,10.10
2012,06,10,00,46,10.10
2012,06,10,00,47,10.10
2012,06,10,00,48,10.10
2012,06,10,00,49,10.10
2012,06,10,00,50,10.10
2012,06,10,00,51,10.10
2012,06,10,00,52,10.10
2012,06,10,00,53,10.10
2012,06,10,00,54,10.10
2012,06,10,00,55,10.10
2012,06,10,00,56,10.10
2012,06,10,00,57,10.10
2012,06,10,00,58,10.10
2012,06,10,00,59,10.00
2012,06,10,01,00,10.00
2012,06,10,01,01,9.90
2012,06,10,01,02,9.90
2012,06,10,01,03,9.90
2012,06,10,01,04,9.90
2012,06,10,01,05,9.90
2012,06,10,01,06,9.90
2012,06,10,01,07,9.90
2012,06,10,01,08,9.90
2012,06,10,01,09,9.90
2012,06,10,01,10,9.90
2012,06,10,01,11,9.90
2012,06,10,01,12,9.90
2012,06,10,01,13,9.90
2012,06,10,01,14,9.90
2012,06,10,01,15,9.90
2012,06,10,01,16,9.90
2012,06,10,01,17,9.90
2012,06,10,01,18,9.90
2012,06,10,01,19,9.90
2012,06,10,01,20,9.90
2012,06,10,01,21,9.90
2012,06,10,01,22,9.90
2012,06,10,01,23,9.90
2012,06,10,01,24,9.90
2012,06,10,01,25,9.90
2012,06,10,01,26,9.90
2012,06,10,01,27,9.90
2012,06,10,01,28,9.90
2012,06,10,01,29,9.90
2012,06,10,01,30,9.90
2012,06,10,01,31,9.90
2012,06,10,01,32,9.90
2012,06,10,01,33,9.90
2012,06,10,01,34,9.90
2012,06,10,01,35,9.90
2012,06,10,01,36,9.90
2012,06,10,01,37,9.90
2012,06,10,01,38,9.90
2012,06,10,01,39,9.90
2012,06,10,01,40,9.90
2012,06,10,01,41,9.90
2012,06,10,01,42,9.90
2012,06,10,01,43,9.90
2012,06,10,01,44,9.90
2012,06,10,01,45,9.90
2012,06,10,01,46,9.90
2012,06,10,01,47,9.90
2012,06,10,01,48,9.90
2012,06,10,01,49,9.90
2012,06,10,01,50,9.90
2012,06,10,01,51,9.90
2012,06,10,01,52,9.90
2012,06,10,01,53,9.90
2012,06,10,01,54,9.90
2012,06,10,01,55,9.90
2012,06,10,01,56,9.90
2012,06,10,01,57,9.90
2012,06,10,01,58,9.90
2012,06,10,01,59,9.90
2012,06,10,02,00,9.90
2012,06,10,02,01,9.90
2012,06,10,02,02,9.90
2012,06,10,02,03,9.90
2012,06,10,02,04,9.90
2012,06,10,02,05,9.90
2012,06,10,02,06,9.90
2012,06,10,02,07,9.90
2012,06,10,02,08,9.90
2012,06,10,02,09,9.90
2012,06,10,02,10,9.90
2012,06,10,02,11,9.90
2012,06,10,02,12,9.90
2012,06,10,02,13,9.90
2012,06,10,02,14,9.90
2012,06,10,02,15,9.90
2012,06,10,02,16,9.90
2012,06,10,02,17,9.90
2012,06,10,02,18,9.90
2012,06,10,02,19,9.90
2012,06,10,02,20,9.90
2012,06,10,02,21,9.90
2012,06,10,02,22,9.90
2012,06,10,02,23,9.90
2012,06,10,02,24,9.90
2012,06,10,02,25,9.90
2012,06,10,02,26,9.90
2012,06,10,02,27,9.90
2012,06,10,02,28,9.90
2012,06,10,02,29,9.90
2012,06,10,02,30,9.90
2012,06,10,02,31,9.90
2012,06,10,02,32,9.90
2012,06,10,02,33,9.90
2012,06,10,02,34,9.90
2012,06,10,02,35,9.90
2012,06,10,02,36,9.90
2012,06,10,02,37,9.90
2012,06,10,02,38,9.90
2012,06,10,02,39,9.90
2012,06,10,02,40,9.90
2012,06,10,02,41,9.90
2012,06,10,02,42,9.90
2012,06,10,02,43,9.90
2012,06,10,02,44,9.90
2012,06,10,02,45,9.90
2012,06,10,02,46,9.90
2012,06,10,02,47,9.90
2012,06,10,02,48,9.90
2012,06,10,02,49,9.90
2012,06,10,02,50,9.90
2012,06,10,02,51,9.90
2012,06,10,02,52,9.90
2012,06,10,02,53,9.90
2012,06,10,02,54,9.90
2012,06,10,02,55,9.90
2012,06,10,02,56,9.90
2012,06,10,02,57,9.90
2012,06,10,02,58,9.90
2012,06,10,02,59,9.90
2012,06,10,03,00,9.90
2012,06,10,03,01,9.90
2012,06,10,03,02,9.90
2012,06,10,03,03,9.90
2012,06,10,03,04,9.90
2012,06,10,03,05,9.90
2012,06,10,03,06,9.90
2012,06,10,03,07,9.90
2012,06,10,03,08,9.90
2012,06,10,03,09,9.90
2012,06,10,03,10,9.90
2012,06,10,03,11,9.90
2012,06,10,03,12,9.90
2012,06,10,03,13,9.90
2012,06,10,03,14,9.90
2012,06,10,03,15,9.90
2012,06,10,03,16,9.90
2012,06,10,03,17,9.90
2012,06,10,03,18,9.90
2012,06,10,03,19,9.90
2012,06,10,03,20,9.90
2012,06,10,03,21,9.90
2012,06,10,03,22,9.90
2012,06,10,03,23,9.90
2012,06,10,03,24,9.90
2012,06,10,03,25,9.90
2012,06,10,03,26,9.90
2012,06,10,03,27,9.90
2012,06,10,03,28,9.90
2012,06,10,03,29,9.90
2012,06,10,03,30,9.90
2012,06,10,03,31,9.90
2012,06,10,03,32,9.90
2012,06,10,03,33,9.90
2012,06,10,03,34,9.90
2012,06,10,03,35,9.90
2012,06,10,03,36,9.90
2012,06,10,03,37,9.90
2012,06,10,03,38,9.90
2012,06,10,03,39,9.90
2012,06,10,03,40,9.90
2012,06,10,03,41,9.80
2012,06,10,03,42,9.80
2012,06,10,03,43,9.80
2012,06,10,03,44,9.80
2012,06,10,03,45,9.80
2012,06,10,03,46,9.80
2012,06,10,03,47,9.80
2012,06,10,03,48,9.80
2012,06,10,03,49,9.80
2012,06,10,03,50,9.80
2012,06,10,03,51,9.80
2012,06,10,03,52,9.80
2012,06,10,03,53,9.80
2012,06,10,03,54,9.80
2012,06,10,03,55,9.80
2012,06,10,03,56,9.80
2012,06,10,03,57,9.80
2012,06,10,03,58,9.80
2012,06,10,03,59,9.80
2012,06,10,04,00,9.80
2012,06,10,04,01,9.80
2012,06,10,04,02,9.80
2012,06,10,04,03,9.80
2012,06,10,04,04,9.80
2012,06,10,04,05,9.90
2012,06,10,04,06,9.90
2012,06,10,04,07,9.90
2012,06,10,04,08,9.80
2012,06,10,04,09,9.80
2012,06,10,04,10,9.80
2012,06,10,04,11,9.80
2012,06,10,04,12,9.80
2012,06,10,04,13,9.80
2012,06,10,04,14,9.80
2012,06,10,04,15,9.80
2012,06,10,04,16,9.80
2012,06,10,04,17,9.80
2012,06,10,04,18,9.80
2012,06,10,04,19,9.80
2012,06,10,04,20,9.80
2012,06,10,04,21,9.80
2012,06,10,04,22,9.80
2012,06,10,04,23,9.80
2012,06,10,04,24,9.80
2012,06,10,04,25,9.80
2012,06,10,04,26,9.70
2012,06,10,04,27,9.70
2012,06,10,04,28,9.70
2012,06,10,04,29,9.70
2012,06,10,04,30,9.70
2012,06,10,04,31,9.70
2012,06,10,04,32,9.70
2012,06,10,04,33,9.80
2012,06,10,04,34,9.80
2012,06,10,04,35,9.80
2012,06,10,04,36,9.80
2012,06,10,04,37,9.80
2012,06,10,04,38,9.80
2012,06,10,04,39,9.80
2012,06,10,04,40,9.80
2012,06,10,04,41,9.70
2012,06,10,04,42,9.70
2012,06,10,04,43,9.70
2012,06,10,04,44,9.70
2012,06,10,04,45,9.70
2012,06,10,04,46,9.70
2012,06,10,04,47,9.70
2012,06,10,04,48,9.70
2012,06,10,04,49,9.70
2012,06,10,04,50,9.70
2012,06,10,04,51,9.70
2012,06,10,04,52,9.70
2012,06,10,04,53,9.70
2012,06,10,04,54,9.70
2012,06,10,04,55,9.70
2012,06,10,04,56,9.70
2012,06,10,04,57,9.70
2012,06,10,04,58,9.70
2012,06,10,04,59,9.60
2012,06,10,05,00,9.60
2012,06,10,05,01,9.60
2012,06,10,05,02,9.60
2012,06,10,05,03,9.60
2012,06,10,05,04,9.60
2012,06,10,05,05,9.60
2012,06,10,05,06,9.60
2012,06,10,05,07,9.60
2012,06,10,05,08,9.60
2012,06,10,05,09,9.50
2012,06,10,05,10,9.50
2012,06,10,05,11,9.50
2012,06,10,05,12,9.50
2012,06,10,05,13,9.50
2012,06,10,05,14,9.50
2012,06,10,05,15,9.50
2012,06,10,05,16,9.40
2012,06,10,05,17,9.40
2012,06,10,05,18,9.40
2012,06,10,05,19,9.40
2012,06,10,05,20,9.40
2012,06,10,05,21,9.40
2012,06,10,05,22,9.40
2012,06,10,05,23,9.40
2012,06,10,05,24,9.30
2012,06,10,05,25,9.30
2012,06,10,05,26,9.30
2012,06,10,05,27,9.30
2012,06,10,05,28,9.30
2012,06,10,05,29,9.30
2012,06,10,05,30,9.30
2012,06,10,05,31,9.30
2012,06,10,05,32,9.30
2012,06,10,05,33,9.20
2012,06,10,05,34,9.20
2012,06,10,05,35,9.20
2012,06,10,05,36,9.20
2012,06,10,05,37,9.20
2012,06,10,05,38,9.20
2012,06,10,05,39,9.20
2012,06,10,05,40,9.20
2012,06,10,05,41,9.20
2012,06,10,05,42,9.20
2012,06,10,05,43,9.20
2012,06,10,05,44,9.20
2012,06,10,05,45,9.20
2012,06,10,05,46,9.20
2012,06,10,05,47,9.20
2012,06,10,05,48,9.20
2012,06,10,05,49,9.20
2012,06,10,05,50,9.20
2012,06,10,05,51,9.20
2012,06,10,05,52,9.20
2012,06,10,05,53,9.20
2012,06,10,05,54,9.20
2012,06,10,05,55,9.20
2012,06,10,05,56,9.20
2012,06,10,05,57,9.20
2012,06,10,05,58,9.20
2012,06,10,05,59,9.20
2012,06,10,06,00,9.20
2012,06,10,06,01,9.20
2012,06,10,06,02,9.20
2012,06,10,06,03,9.20
2012,06,10,06,04,9.20
2012,06,10,06,05,9.20
2012,06,10,06,06,9.20
2012,06,10,06,07,9.20
2012,06,10,06,08,9.20
2012,06,10,06,09,9.20
2012,06,10,06,10,9.20
2012,06,10,06,11,9.20
2012,06,10,06,12,9.20
2012,06,10,06,13,9.20
2012,06,10,06,14,9.20
2012,06,10,06,15,9.20
2012,06,10,06,16,9.20
2012,06,10,06,17,9.20
2012,06,10,06,18,9.20
2012,06,10,06,19,9.20
2012,06,10,06,20,9.20
2012,06,10,06,21,9.20
2012,06,10,06,22,9.20
2012,06,10,06,23,9.20
2012,06,10,06,24,9.20
2012,06,10,06,25,9.20
2012,06,10,06,26,9.30
2012,06,10,06,27,9.30
2012,06,10,06,28,9.30
2012,06,10,06,29,9.30
2012,06,10,06,30,9.40
2012,06,10,06,31,9.40
2012,06,10,06,32,9.40
2012,06,10,06,33,9.50
2012,06,10,06,34,9.50
2012,06,10,06,35,9.60
2012,06,10,06,36,9.70
2012,06,10,06,37,9.70
2012,06,10,06,38,9.80
2012,06,10,06,39,9.80
2012,06,10,06,40,9.90
2012,06,10,06,41,9.90
2012,06,10,06,42,9.90
2012,06,10,06,43,9.90
2012,06,10,06,44,9.90
2012,06,10,06,45,9.90
2012,06,10,06,46,10.10
2012,06,10,06,47,10.10
2012,06,10,06,48,10.10
2012,06,10,06,49,10.10
2012,06,10,06,50,10.10
2012,06,10,06,51,10.20
2012,06,10,06,52,10.20
2012,06,10,06,53,10.20
2012,06,10,06,54,10.30
2012,06,10,06,55,10.30
2012,06,10,06,56,10.30
2012,06,10,06,57,10.30
2012,06,10,06,58,10.30
2012,06,10,06,59,10.40
2012,06,10,07,00,10.40
2012,06,10,07,01,10.40
2012,06,10,07,02,10.40
2012,06,10,07,03,10.40
2012,06,10,07,04,10.50
2012,06,10,07,05,10.60
2012,06,10,07,06,10.60
2012,06,10,07,07,10.60
2012,06,10,07,08,10.60
2012,06,10,07,09,10.60
2012,06,10,07,10,10.60
2012,06,10,07,11,10.60
2012,06,10,07,12,10.60
2012,06,10,07,13,10.60
2012,06,10,07,14,10.60
2012,06,10,07,15,10.60
2012,06,10,07,16,10.60
2012,06,10,07,17,10.60
2012,06,10,07,18,10.60
2012,06,10,07,19,10.60
2012,06,10,07,20,10.70
2012,06,10,07,21,10.70
2012,06,10,07,22,10.70
2012,06,10,07,23,10.70
2012,06,10,07,24,10.80
2012,06,10,07,25,10.80
2012,06,10,07,26,10.80
2012,06,10,07,27,10.90
2012,06,10,07,28,10.90
2012,06,10,07,29,10.90
2012,06,10,07,30,11.00
2012,06,10,07,31,11.10
2012,06,10,07,32,11.10
2012,06,10,07,33,11.10
2012,06,10,07,34,11.10
2012,06,10,07,35,11.10
2012,06,10,07,36,11.10
2012,06,10,07,37,11.10
2012,06,10,07,38,11.20
2012,06,10,07,39,11.20
2012,06,10,07,40,11.20
2012,06,10,07,41,11.30
2012,06,10,07,42,11.30
2012,06,10,07,43,11.30
2012,06,10,07,44,11.30
2012,06,10,07,45,11.30
2012,06,10,07,46,11.30
2012,06,10,07,47,11.30
2012,06,10,07,48,11.30
2012,06,10,07,49,11.30
2012,06,10,07,50,11.30
2012,06,10,07,51,11.30
2012,06,10,07,52,11.30
2012,06,10,07,53,11.30
2012,06,10,07,54,11.30
2012,06,10,07,55,11.30
2012,06,10,07,56,11.30
2012,06,10,07,57,11.40
2012,06,10,07,58,11.40
2012,06,10,07,59,11.40
2012,06,10,08,00,11.40
2012,06,10,08,01,11.40
2012,06,10,08,02,11.40
2012,06,10,08,03,11.40
2012,06,10,08,04,11.40
2012,06,10,08,05,11.40
2012,06,10,08,06,11.50
2012,06,10,08,07,11.60
2012,06,10,08,08,11.60
2012,06,10,08,09,11.60
2012,06,10,08,10,11.60
2012,06,10,08,11,11.60
2012,06,10,08,12,11.70
2012,06,10,08,13,11.70
2012,06,10,08,14,11.70
2012,06,10,08,15,11.70
2012,06,10,08,16,11.70
2012,06,10,08,17,11.80
2012,06,10,08,18,11.80
2012,06,10,08,19,11.80
2012,06,10,08,20,11.80
2012,06,10,08,21,11.80
2012,06,10,08,22,11.90
2012,06,10,08,23,11.90
2012,06,10,08,24,12.00
2012,06,10,08,25,12.00
2012,06,10,08,26,12.00
2012,06,10,08,27,12.00
2012,06,10,08,28,11.90
2012,06,10,08,29,11.80
2012,06,10,08,30,11.80
2012,06,10,08,31,11.80
2012,06,10,08,32,11.80
2012,06,10,08,33,11.80
2012,06,10,08,34,11.80
2012,06,10,08,35,11.80
2012,06,10,08,36,11.80
2012,06,10,08,37,11.90
2012,06,10,08,38,11.90
2012,06,10,08,39,11.90
2012,06,10,08,40,11.90
2012,06,10,08,41,11.80
2012,06,10,08,42,11.80
2012,06,10,08,43,11.80
2012,06,10,08,44,11.80
2012,06,10,08,45,11.80
2012,06,10,08,46,11.80
2012,06,10,08,47,11.80
2012,06,10,08,48,11.80
2012,06,10,08,49,11.80
2012,06,10,08,50,11.80
2012,06,10,08,51,11.80
2012,06,10,08,52,11.80
2012,06,10,08,53,11.80
2012,06,10,08,54,11.80
2012,06,10,08,55,11.80
2012,06,10,08,56,11.80
2012,06,10,08,57,11.80
2012,06,10,08,58,11.90
2012,06,10,08,59,12.00
2012,06,10,09,00,12.00
2012,06,10,09,01,12.10
2012,06,10,09,02,12.10
2012,06,10,09,03,12.20
2012,06,10,09,04,12.30
2012,06,10,09,05,12.30
2012,06,10,09,06,12.30
2012,06,10,09,07,12.30
2012,06,10,09,08,12.40
2012,06,10,09,09,12.40
2012,06,10,09,10,12.40
2012,06,10,09,11,12.40
2012,06,10,09,12,12.30
2012,06,10,09,13,12.30
2012,06,10,09,14,12.20
2012,06,10,09,15,12.30
2012,06,10,09,16,12.20
2012,06,10,09,17,12.30
2012,06,10,09,18,12.30
2012,06,10,09,19,12.30
2012,06,10,09,20,12.40
2012,06,10,09,21,12.40
2012,06,10,09,22,12.40
2012,06,10,09,23,12.50
2012,06,10,09,24,12.50
2012,06,10,09,25,12.60
2012,06,10,09,26,12.60
2012,06,10,09,27,12.60
2012,06,10,09,28,12.50
2012,06,10,09,29,12.50
2012,06,10,09,30,12.50
2012,06,10,09,31,12.60
2012,06,10,09,32,12.60
2012,06,10,09,33,12.60
2012,06,10,09,34,12.60
2012,06,10,09,35,12.70
2012,06,10,09,36,12.70
2012,06,10,09,37,12.70
2012,06,10,09,38,12.70
2012,06,10,09,39,12.60
2012,06,10,09,40,12.50
2012,06,10,09,41,12.50
2012,06,10,09,42,12.50
2012,06,10,09,43,12.50
2012,06,10,09,44,12.50
2012,06,10,09,45,12.50
2012,06,10,09,46,12.40
2012,06,10,09,47,12.50
2012,06,10,09,48,12.50
2012,06,10,09,49,12.50
2012,06,10,09,50,12.60
2012,06,10,09,51,12.70
2012,06,10,09,52,12.80
2012,06,10,09,53,12.80
2012,06,10,09,54,12.80
2012,06,10,09,55,12.80
2012,06,10,09,56,12.90
2012,06,10,09,57,12.90
2012,06,10,09,58,12.80
2012,06,10,09,59,12.80
2012,06,10,10,00,12.80
2012,06,10,10,01,12.80
2012,06,10,10,02,12.80
2012,06,10,10,03,12.80
2012,06,10,10,04,12.80
2012,06,10,10,05,12.80
2012,06,10,10,06,12.70
2012,06,10,10,07,12.70
2012,06,10,10,08,12.70
2012,06,10,10,09,12.70
2012,06,10,10,10,12.60
2012,06,10,10,11,12.70
2012,06,10,10,12,12.70
2012,06,10,10,13,12.70
2012,06,10,10,14,12.70
2012,06,10,10,15,12.70
2012,06,10,10,16,12.80
2012,06,10,10,17,12.80
2012,06,10,10,18,12.80
2012,06,10,10,19,12.80
2012,06,10,10,20,12.80
2012,06,10,10,21,12.80
2012,06,10,10,22,12.80
2012,06,10,10,23,12.80
2012,06,10,10,24,12.90
2012,06,10,10,25,13.00
2012,06,10,10,26,13.00
2012,06,10,10,27,13.20
2012,06,10,10,28,13.30
2012,06,10,10,29,13.40
2012,06,10,10,30,13.40
2012,06,10,10,31,13.30
2012,06,10,10,32,13.30
2012,06,10,10,33,13.20
2012,06,10,10,34,13.30
2012,06,10,10,35,13.20
2012,06,10,10,36,13.20
2012,06,10,10,37,13.10
2012,06,10,10,38,13.10
2012,06,10,10,39,13.10
2012,06,10,10,40,13.20
2012,06,10,10,41,13.30
2012,06,10,10,42,13.30
2012,06,10,10,43,13.40
2012,06,10,10,44,13.50
2012,06,10,10,45,13.60
2012,06,10,10,46,13.70
2012,06,10,10,47,13.70
2012,06,10,10,48,13.80
2012,06,10,10,49,13.90
2012,06,10,10,50,14.00
2012,06,10,10,51,14.10
2012,06,10,10,52,14.20
2012,06,10,10,53,14.30
2012,06,10,10,54,14.30
2012,06,10,10,55,14.30
2012,06,10,10,56,14.40
2012,06,10,10,57,14.50
2012,06,10,10,58,14.60
2012,06,10,10,59,14.60
2012,06,10,11,00,14.60
2012,06,10,11,01,14.50
2012,06,10,11,02,14.50
2012,06,10,11,03,14.50
2012,06,10,11,04,14.50
2012,06,10,11,05,14.40
2012,06,10,11,06,14.30
2012,06,10,11,07,14.30
2012,06,10,11,08,14.30
2012,06,10,11,09,14.30
2012,06,10,11,10,14.30
2012,06,10,11,11,14.20
2012,06,10,11,12,14.20
2012,06,10,11,13,14.20
2012,06,10,11,14,14.30
2012,06,10,11,15,14.50
2012,06,10,11,16,14.60
2012,06,10,11,17,14.60
2012,06,10,11,18,14.60
2012,06,10,11,19,14.60
2012,06,10,11,20,14.60
2012,06,10,11,21,14.50
2012,06,10,11,22,14.50
2012,06,10,11,23,14.40
2012,06,10,11,24,14.40
2012,06,10,11,25,14.30
2012,06,10,11,26,14.40
2012,06,10,11,27,14.50
2012,06,10,11,28,14.60
2012,06,10,11,29,14.60
2012,06,10,11,30,14.70
2012,06,10,11,31,14.80
2012,06,10,11,32,14.80
2012,06,10,11,33,14.80
2012,06,10,11,34,14.80
2012,06,10,11,35,14.80
2012,06,10,11,36,14.80
2012,06,10,11,37,14.80
2012,06,10,11,38,14.80
2012,06,10,11,39,14.80
2012,06,10,11,40,14.80
2012,06,10,11,41,14.80
2012,06,10,11,42,14.80
2012,06,10,11,43,14.80
2012,06,10,11,44,14.90
2012,06,10,11,45,14.90
2012,06,10,11,46,14.90
2012,06,10,11,47,15.00
2012,06,10,11,48,15.00
2012,06,10,11,49,15.10
2012,06,10,11,50,15.20
2012,06,10,11,51,15.30
2012,06,10,11,52,15.30
2012,06,10,11,53,15.30
2012,06,10,11,54,15.30
2012,06,10,11,55,15.30
2012,06,10,11,56,15.20
2012,06,10,11,57,15.20
2012,06,10,11,58,15.30
2012,06,10,11,59,15.20
2012,06,10,12,00,15.10
2012,06,10,12,01,14.90
2012,06,10,12,02,14.90
2012,06,10,12,03,14.90
2012,06,10,12,04,14.90
2012,06,10,12,05,14.90
2012,06,10,12,06,15.00
2012,06,10,12,07,15.10
2012,06,10,12,08,15.20
2012,06,10,12,09,15.30
2012,06,10,12,10,15.40
2012,06,10,12,11,15.30
2012,06,10,12,12,15.30
2012,06,10,12,13,15.30
2012,06,10,12,14,15.30
2012,06,10,12,15,15.30
2012,06,10,12,16,15.30
2012,06,10,12,17,15.30
2012,06,10,12,18,15.30
2012,06,10,12,19,15.30
2012,06,10,12,20,15.30
2012,06,10,12,21,15.30
2012,06,10,21,25,10.70
2012,06,10,21,26,10.70
2012,06,10,21,27,10.70
2012,06,10,21,28,10.70
2012,06,10,21,29,10.60
2012,06,10,21,30,10.60
2012,06,10,21,31,10.60
2012,06,10,21,32,10.60
2012,06,10,21,33,10.60
2012,06,10,21,34,10.60
2012,06,10,21,35,10.60
2012,06,10,21,36,10.60
2012,06,10,21,37,10.60
2012,06,10,21,38,10.60
2012,06,10,21,39,10.60
2012,06,10,21,40,10.60
2012,06,10,21,41,10.60
2012,06,10,21,42,10.60
2012,06,10,21,43,10.60
2012,06,10,21,44,10.60
2012,06,10,21,45,10.60
2012,06,10,21,46,10.60
2012,06,10,21,47,10.60
2012,06,10,21,48,10.60
2012,06,10,21,49,10.60
2012,06,10,21,50,10.60
2012,06,10,21,51,10.60
2012,06,10,21,52,10.50
2012,06,10,21,53,10.40
2012,06,10,21,54,10.40
2012,06,10,21,55,10.40
2012,06,10,21,56,10.40
2012,06,10,21,57,10.40
2012,06,10,21,58,10.30
2012,06,10,21,59,10.30
2012,06,10,22,00,10.30
2012,06,10,22,01,10.20
2012,06,10,22,02,10.20
2012,06,10,22,03,10.20
2012,06,10,22,04,10.20
2012,06,10,22,05,10.10
2012,06,10,22,06,10.10
2012,06,10,22,07,10.10
2012,06,10,22,08,10.10
2012,06,10,22,09,10.10
2012,06,10,22,10,10.10
2012,06,10,22,11,10.10
2012,06,10,22,12,10.00
2012,06,10,22,13,9.90
2012,06,10,22,14,9.90
2012,06,10,22,15,9.90
2012,06,10,22,16,9.90
2012,06,10,22,17,9.90
2012,06,10,22,18,9.90
2012,06,10,22,19,9.90
2012,06,10,22,20,9.90
2012,06,10,22,21,9.90
2012,06,10,22,22,9.90
2012,06,10,22,23,9.90
2012,06,10,22,24,9.90
2012,06,10,22,25,9.90
2012,06,10,22,26,9.90
2012,06,10,22,27,9.90
2012,06,10,22,28,9.90
2012,06,10,22,29,9.90
2012,06,10,22,30,9.90
2012,06,10,22,31,9.90
2012,06,10,22,32,9.80
2012,06,10,22,33,9.80
2012,06,10,22,34,9.80
2012,06,10,22,35,9.80
2012,06,10,22,36,9.80
2012,06,10,22,37,9.80
2012,06,10,22,38,9.70
2012,06,10,22,39,9.70
2012,06,10,22,40,9.70
2012,06,10,22,41,9.70
2012,06,10,22,42,9.70
2012,06,10,22,43,9.70
2012,06,10,22,44,9.70
2012,06,10,22,45,9.70
2012,06,10,22,46,9.70
2012,06,10,22,47,9.70
2012,06,10,22,48,9.60
2012,06,10,22,49,9.60
2012,06,10,22,50,9.60
2012,06,10,22,51,9.60
2012,06,10,22,52,9.60
2012,06,10,22,53,9.60
2012,06,10,22,54,9.60
2012,06,10,22,55,9.60
2012,06,10,22,56,9.60
2012,06,10,22,57,9.50
2012,06,10,22,58,9.50
2012,06,10,22,59,9.50
2012,06,10,23,00,9.50
2012,06,10,23,01,9.50
2012,06,10,23,02,9.50
2012,06,10,23,03,9.50
2012,06,10,23,04,9.50
2012,06,10,23,05,9.50
2012,06,10,23,06,9.50
2012,06,10,23,07,9.50
2012,06,10,23,08,9.50
2012,06,10,23,09,9.50
2012,06,10,23,10,9.40
2012,06,10,23,11,9.40
2012,06,10,23,12,9.40
2012,06,10,23,13,9.40
2012,06,10,23,14,9.40
2012,06,10,23,15,9.40
2012,06,10,23,16,9.40
2012,06,10,23,17,9.40
2012,06,10,23,18,9.40
2012,06,10,23,19,9.40
2012,06,10,23,20,9.50
2012,06,10,23,21,9.50
2012,06,10,23,22,9.50
2012,06,10,23,23,9.50
2012,06,10,23,24,9.50
2012,06,10,23,25,9.50
2012,06,10,23,26,9.50
2012,06,10,23,27,9.50
2012,06,10,23,28,9.50
2012,06,10,23,29,9.50
2012,06,10,23,30,9.40
2012,06,10,23,31,9.40
2012,06,10,23,32,9.40
2012,06,10,23,33,9.40
2012,06,10,23,34,9.40
2012,06,10,23,35,9.40
2012,06,10,23,36,9.40
2012,06,10,23,37,9.40
2012,06,10,23,38,9.40
2012,06,10,23,39,9.40
2012,06,10,23,40,9.40
2012,06,10,23,41,9.40
2012,06,10,23,42,9.40
2012,06,10,23,43,9.40
2012,06,10,23,44,9.30
2012,06,10,23,45,9.30
2012,06,10,23,46,9.30
2012,06,10,23,47,9.30
2012,06,10,23,48,9.30
2012,06,10,23,49,9.30
2012,06,10,23,50,9.30
2012,06,10,23,51,9.30
2012,06,10,23,52,9.30
2012,06,10,23,53,9.30
2012,06,10,23,54,9.30
2012,06,10,23,55,9.30
2012,06,10,23,56,9.20
2012,06,10,23,57,9.20
2012,06,10,23,58,9.20
2012,06,10,23,59,9.20
